Regional Weather Roundup
Issued by NWS

Home | Current Version | Previous Version | Graphics & Text | Print | Product List | Glossary Off
Versions: 1 2 3 4 5 6 7 8 9 10 11 12 13 14 15 16 17 18 19 20 21 22 23 24 25 26 27 28 29 30 31 32 33 34 35 36 37 38 39 40 41 42 43 44 45 46 47 48 49 50

000
ASUS43 KDTX 272110
RWRMI
MICHIGAN HOURLY REGIONAL WEATHER ROUNDUP
NATIONAL WEATHER SERVICE DETROIT/PONTIAC MI
400 PM EST TUE JAN 27 2015

NOTE: "FAIR" INDICATES FEW OR NO CLOUDS BELOW 12,000 FEET WITH NO
SIGNIFICANT WEATHER AND/OR OBSTRUCTION TO VISIBILITY.

MIZ047>049-052>055-059>063-066>070-074>076-081>083-272200-
SOUTHEAST LOWER MICHIGAN

CITY           SKY/WX    TMP DP  RH WIND       PRES   REMARKS
ADRIAN         SUNNY     26  12  55 N10       30.14R WCI  16
ALMA           SUNNY     26   8  48 NW7       30.18R WCI  18
ANN ARBOR      SUNNY     28  12  51 N8        30.13R WCI  20
BAD AXE        SUNNY     22  14  71 N12       30.16R WCI  10
CARO           MOSUNNY   22  15  72 N13       30.16R WCI  10
DETROIT CITY   SUNNY     28  11  48 N12       30.12R WCI  18
DETROIT        MOSUNNY   28  12  51 NW10      30.13R WCI  19
FLINT          SUNNY     26  13  57 N15G21    30.16R WCI  14
GROSSE ILE     SUNNY     27  12  54 N9        30.11R WCI  17
HILLSDALE      SUNNY     25  11  54 NW7       30.12R WCI  17
HOWELL         MOSUNNY   23  11  60 N9        30.13R WCI  13

CITY           SKY/WX    TMP DP  RH WIND       PRES   REMARKS
JACKSON        MOSUNNY   27  12  53 N8        30.14R WCI  19
LAMBERTVILLE   MOSUNNY   28  14  54 NW7       30.14R WCI  21
LANSING        MOSUNNY   26  12  55 N8        30.17R WCI  18
LAPEER         FAIR      23  10  57 N9        30.13R WCI  13
MASON          MOSUNNY   24  12  59 NW10      30.15R WCI  14
MONROE         SUNNY     27  12  54 NW9       30.12R WCI  17
MT. CLEMENS    MOSUNNY   25  13  60 N15       30.11R WCI  12
PONTIAC        MOSUNNY   25   7  46 N12G21    30.11R WCI  14
PORT HOPE        N/A     23  12  62 N12       30.15R WCI  12
PORT HURON     CLOUDY    23  14  68 N10       30.14R WCI  12
TRI CITIES     SUNNY     25  12  58 NE7       30.19R WCI  17
TROY           SUNNY     28   7  41 N8        30.13R WCI  20
SAGINAW HB     SUNNY     25  14  63 N10       30.18R WCI  15
$$
MIZ043>046-050>051-056>058-064>065-071>073-077>080-272200-
SOUTHWEST LOWER MICHIGAN

CITY           SKY/WX    TMP DP  RH WIND       PRES   REMARKS
BATTLE CREEK   SUNNY     28  12  51 N10       30.16R WCI  19
BENTON HARBOR  SUNNY     26  12  55 VRB6      30.19R WCI  19
BIG RAPIDS     SUNNY     26   8  46 N6        30.17R WCI  20
COLDWATER      SUNNY     26  12  54 N10       30.15R WCI  16
FREMONT        FAIR      26   8  45 NW5       30.19R WCI  21
HOLLAND        SUNNY     29  10  45 VRB5      30.20R WCI  24
GRAND RAPIDS   SUNNY     29  10  45 CALM      30.18S
IONIA          FAIR      28   6  39 NE6       30.17R WCI  21
KALAMAZOO      SUNNY     27  12  53 N9        30.17R WCI  18
LUDINGTON      SUNNY     28  14  55 NW8       30.21R WCI  20
MARSHALL       SUNNY     26  11  54 NW5       30.15R WCI  20
MOUNT PLEASANT SUNNY     26   3  38 N5        30.18R WCI  20
MUSKEGON       SUNNY     28  13  53 W10       30.21R WCI  19
SOUTH HAVEN    SUNNY     28  13  52 NW6       30.19R WCI  22
$$
MIZ016>042-272200-
NORTHERN LOWER MICHIGAN

CITY           SKY/WX    TMP DP  RH WIND       PRES   REMARKS
ALPENA         SUNNY     20   6  55 N8        30.21R WCI  10
BEAVER ISLAND  SUNNY     19   4  53 CALM      30.24R
BELLAIRE       SUNNY     26   2  36 NW3       30.22S
CADILLAC       SUNNY     26   2  36 NW6       30.14R WCI  19
CHARLEVOIX     SUNNY     20  12  72 N7        30.26S WCI  11
FRANKFORT      SUNNY     25  16  66 N6        30.22R WCI  18
GAYLORD        SUNNY     22  -2  35 N3        30.15R
GRAYLING       SUNNY     23   0  37 CALM      30.17R
HARBOR SPRINGS SUNNY     22  11  62 SW3       30.22R
HOUGHTON LAKE  SUNNY     25  -2  31 NW8       30.16R WCI  16
MANISTEE       SUNNY     27  12  54 N8        30.22R WCI  18
OSCODA         SUNNY     22   9  56 N10       30.18R WCI  11
PELLSTON       SUNNY     22   4  46 N3        30.22S
ROGERS CITY    SUNNY     19   8  62 N5        30.23R WCI  12
TRAVERSE CITY  SUNNY     24   6  46 NE6       30.21R WCI  17
$$
MIZ007>008-015-272200-
EASTERN UPPER MICHIGAN

CITY           SKY/WX    TMP DP  RH WIND       PRES   REMARKS
KINROSS        SUNNY     27   0  31 CALM      30.22S
MACKINAC ISLAN SUNNY     20  -5  32 CALM      30.22S
NEWBERRY       SUNNY     21  -4  33 NW5       30.21R WCI  15
S. S. MARIE    SUNNY     20  -4  34 NW7       30.22S WCI  11
MUNISING         N/A     24  11  57 N6        30.22R WCI  17
$$
MIZ004>006-011>014-085-272200-
CENTRAL UPPER MICHIGAN

CITY           SKY/WX    TMP DP  RH WIND       PRES   REMARKS
MANISTIQUE     SUNNY     20  11  67 SW3       30.23S
ESCANABA       CLOUDY    25  16  68 E3        30.23S
MENOMINEE      MOSUNNY   27  16  63 E6        30.23R WCI  20
SAWYER-GWINN   FLURRIES  23  16  74 SW7       30.18R WCI  15
$$
MIZ001>003-009>011-084-272200-
WESTERN UPPER MICHIGAN

CITY           SKY/WX    TMP DP  RH WIND       PRES   REMARKS
IRON MOUNTAIN  CLOUDY    23  16  74 SW6       30.18R WCI  16
HOUGHTON       CLOUDY    25  18  74 S7        30.15F WCI  17
COPPER HARBOR    N/A     26  19  74 VRB6      30.20R WCI  19
IRONWOOD       CLOUDY    27  25  93 S7        30.12S WCI  19
$$

ABBREVIATIONS USED IN REMARKS
   TC - TEMPERATURE IN CELSIUS
  WCI - WIND CHILL INDEX
   HX - HEAT INDEX
  VSB - VISIBILITY



USA.gov is the U.S. government's official web portal to all federal, state and local government web resources and services.